Terminal Aerodrome Forecast
Issued by NWS Aberdeen, SD

Home | Current Version | Previous Version | Text Only | Print | Product List | Glossary On
Versions: 1 2 3 4 5 6 7 8 9 10 11 12 13 14 15 16 17 18 19 20 21 22 23 24 25 26 27 28 29 30 31 32 33 34 35 36 37 38 39 40 41 42 43 44 45 46 47 48 49 50
000
FTAK31 PAFA 220030 AAA
TAFABR
TAF AMD
PABR 220030Z 2201/2224 35007KT 6SM BR VCSH SCT007 BKN010
     FM220500 35009KT P6SM BKN007 OVC015
     FM221600 10008KT 5SM BR SCT007 BKN015=

USA.gov is the U.S. government's official web portal to all federal, state and local government web resources and services.